Time,TemperatureF,DewpointF,PressureIn,WindDirection,WindDirectionDegrees,WindSpeedMPH,WindSpeedGustMPH,Humidity,HourlyPrecipIn,Conditions,Clouds,dailyrainin,SolarRadiationWatts/m^2,SoftwareType,DateUTC
2013-03-26 00:13:00,31.0,29.0,-100.00,WNW,294,6.0,13.0,92,0.00,,,0.25,0.000000,,2013-03-26 04:13:00,
2013-03-26 00:23:00,31.0,29.0,-100.00,WNW,294,6.0,13.0,92,0.00,,,0.25,0.000000,,2013-03-26 04:23:00,
2013-03-26 00:33:00,31.0,29.0,-100.00,WNW,294,6.0,13.0,92,0.00,,,0.25,0.000000,,2013-03-26 04:33:00,
2013-03-26 00:43:00,31.0,29.0,-100.00,WNW,294,6.0,13.0,92,0.00,,,0.25,0.000000,,2013-03-26 04:43:00,
2013-03-26 01:12:00,32.0,30.0,-100.00,WNW,294,7.0,11.0,93,0.00,,,0.25,0.000000,,2013-03-26 05:12:00,
2013-03-26 01:22:00,32.0,30.0,-100.00,WNW,294,7.0,11.0,93,0.00,,,0.25,0.000000,,2013-03-26 05:22:00,
2013-03-26 01:32:00,32.0,30.0,-100.00,WNW,294,7.0,11.0,93,0.00,,,0.25,0.000000,,2013-03-26 05:32:00,
2013-03-26 01:42:00,32.0,30.0,-100.00,WNW,294,7.0,11.0,93,0.00,,,0.25,0.000000,,2013-03-26 05:42:00,
2013-03-26 02:12:00,31.0,29.0,-100.00,WNW,291,7.0,12.0,93,0.00,,,0.25,0.000000,,2013-03-26 06:12:00,
2013-03-26 02:22:00,31.0,29.0,-100.00,WNW,291,7.0,12.0,93,0.00,,,0.25,0.000000,,2013-03-26 06:22:00,
2013-03-26 02:32:00,31.0,29.0,-100.00,WNW,291,7.0,12.0,93,0.00,,,0.25,0.000000,,2013-03-26 06:32:00,
2013-03-26 02:42:00,31.0,29.0,-100.00,WNW,291,7.0,12.0,93,0.00,,,0.25,0.000000,,2013-03-26 06:42:00,
2013-03-26 03:12:00,31.0,29.0,-100.00,WNW,299,7.0,12.0,93,0.00,,,0.25,0.000000,,2013-03-26 07:12:00,
2013-03-26 03:22:00,31.0,29.0,-100.00,WNW,299,7.0,12.0,93,0.00,,,0.25,0.000000,,2013-03-26 07:22:00,
2013-03-26 03:33:00,31.0,29.0,-100.00,WNW,299,7.0,12.0,93,0.00,,,0.25,0.000000,,2013-03-26 07:33:00,
2013-03-26 03:42:00,31.0,29.0,-100.00,WNW,299,7.0,12.0,93,0.00,,,0.25,0.000000,,2013-03-26 07:42:00,
2013-03-26 04:13:00,31.0,29.0,-100.00,WNW,296,8.0,14.0,93,0.00,,,0.25,0.000000,,2013-03-26 08:13:00,
2013-03-26 04:22:00,31.0,29.0,-100.00,WNW,296,8.0,14.0,93,0.00,,,0.25,0.000000,,2013-03-26 08:22:00,
2013-03-26 04:32:00,31.0,29.0,-100.00,WNW,296,8.0,14.0,93,0.00,,,0.25,0.000000,,2013-03-26 08:32:00,
2013-03-26 04:42:00,31.0,29.0,-100.00,WNW,296,8.0,14.0,93,0.00,,,0.25,0.000000,,2013-03-26 08:42:00,
2013-03-26 05:12:00,30.0,28.0,-100.00,WNW,299,6.0,14.0,93,0.00,,,0.25,0.000000,,2013-03-26 09:12:00,
2013-03-26 05:22:00,30.0,28.0,-100.00,WNW,299,6.0,14.0,93,0.00,,,0.25,0.000000,,2013-03-26 09:22:00,
2013-03-26 05:33:00,30.0,28.0,-100.00,WNW,299,6.0,14.0,93,0.00,,,0.25,0.000000,,2013-03-26 09:33:00,
2013-03-26 05:43:00,30.0,28.0,-100.00,WNW,299,6.0,14.0,93,0.00,,,0.25,0.000000,,2013-03-26 09:43:00,
2013-03-26 06:12:00,30.0,28.0,-100.00,NW,306,7.0,12.0,92,0.00,,,0.25,0.000000,,2013-03-26 10:12:00,
2013-03-26 06:23:00,30.0,28.0,-100.00,NW,306,7.0,12.0,92,0.00,,,0.25,0.000000,,2013-03-26 10:23:00,
2013-03-26 06:33:00,30.0,28.0,-100.00,NW,306,7.0,12.0,92,0.00,,,0.25,0.000000,,2013-03-26 10:33:00,
2013-03-26 06:42:00,30.0,28.0,-100.00,NW,306,7.0,12.0,92,0.00,,,0.25,0.000000,,2013-03-26 10:42:00,
2013-03-26 07:12:00,30.0,28.0,-100.00,WNW,303,6.0,13.0,92,0.00,,,0.25,0.000000,,2013-03-26 11:12:00,
2013-03-26 07:22:00,30.0,28.0,-100.00,WNW,303,6.0,13.0,92,0.00,,,0.25,0.000000,,2013-03-26 11:22:00,
2013-03-26 07:32:00,30.0,28.0,-100.00,WNW,303,6.0,13.0,92,0.00,,,0.25,0.000000,,2013-03-26 11:32:00,
2013-03-26 07:42:00,30.0,28.0,-100.00,WNW,303,6.0,13.0,92,0.00,,,0.25,0.000000,,2013-03-26 11:42:00,
2013-03-26 08:12:00,30.0,28.0,-100.00,WNW,301,7.0,12.0,92,0.00,,,0.25,1.000000,,2013-03-26 12:12:00,
2013-03-26 08:22:00,30.0,28.0,-100.00,WNW,301,7.0,12.0,92,0.00,,,0.25,1.000000,,2013-03-26 12:22:00,
2013-03-26 08:32:00,30.0,28.0,-100.00,WNW,301,7.0,12.0,92,0.00,,,0.25,1.000000,,2013-03-26 12:32:00,
2013-03-26 08:42:00,30.0,28.0,-100.00,WNW,301,7.0,12.0,92,0.00,,,0.25,1.000000,,2013-03-26 12:42:00,
2013-03-26 09:12:00,30.0,27.0,-100.00,WNW,297,8.0,13.0,89,0.00,,,0.25,35.000000,,2013-03-26 13:12:00,
2013-03-26 09:23:00,30.0,27.0,-100.00,WNW,297,8.0,13.0,89,0.00,,,0.25,35.000000,,2013-03-26 13:23:00,
2013-03-26 09:32:00,30.0,27.0,-100.00,WNW,297,8.0,13.0,89,0.00,,,0.25,35.000000,,2013-03-26 13:32:00,
2013-03-26 09:42:00,30.0,27.0,-100.00,WNW,297,8.0,13.0,89,0.00,,,0.25,35.000000,,2013-03-26 13:42:00,
2013-03-26 10:12:00,31.0,28.0,-100.00,NW,305,7.0,16.0,87,0.00,,,0.25,119.000000,,2013-03-26 14:12:00,
2013-03-26 10:23:00,31.0,28.0,-100.00,NW,305,7.0,16.0,87,0.00,,,0.25,119.000000,,2013-03-26 14:23:00,
2013-03-26 10:33:00,31.0,28.0,-100.00,NW,305,7.0,16.0,87,0.00,,,0.25,119.000000,,2013-03-26 14:33:00,
2013-03-26 10:42:00,31.0,28.0,-100.00,NW,305,7.0,16.0,87,0.00,,,0.25,119.000000,,2013-03-26 14:42:00,
2013-03-26 11:12:00,34.0,29.0,-100.00,WNW,303,8.0,15.0,82,0.03,,,0.28,289.000000,,2013-03-26 15:12:00,
2013-03-26 11:22:00,34.0,29.0,-100.00,WNW,303,8.0,15.0,82,0.03,,,0.28,289.000000,,2013-03-26 15:22:00,
2013-03-26 11:33:00,34.0,29.0,-100.00,WNW,303,8.0,15.0,82,0.03,,,0.28,289.000000,,2013-03-26 15:33:00,
2013-03-26 11:43:00,34.0,29.0,-100.00,WNW,303,8.0,15.0,82,0.03,,,0.28,289.000000,,2013-03-26 15:43:00,
2013-03-26 12:13:00,36.0,29.0,-100.00,NW,308,8.0,15.0,76,0.04,,,-99.99,454.000000,,2013-03-26 16:13:00,
2013-03-26 12:23:00,36.0,29.0,-100.00,NW,308,8.0,15.0,76,0.04,,,-99.99,454.000000,,2013-03-26 16:23:00,
2013-03-26 12:33:00,36.0,29.0,-100.00,NW,308,8.0,15.0,76,0.04,,,-99.99,454.000000,,2013-03-26 16:33:00,
2013-03-26 12:42:00,36.0,29.0,-100.00,NW,308,8.0,15.0,76,0.04,,,-99.99,454.000000,,2013-03-26 16:42:00,
2013-03-26 13:12:00,38.0,28.0,-100.00,NW,321,10.0,16.0,68,0.03,,,0.30,717.000000,,2013-03-26 17:12:00,
2013-03-26 13:23:00,38.0,28.0,-100.00,NW,321,10.0,16.0,68,0.03,,,0.30,717.000000,,2013-03-26 17:23:00,
2013-03-26 13:33:00,38.0,28.0,-100.00,NW,321,10.0,16.0,68,0.03,,,0.30,717.000000,,2013-03-26 17:33:00,
2013-03-26 13:42:00,38.0,28.0,-100.00,NW,321,10.0,16.0,68,0.03,,,0.30,717.000000,,2013-03-26 17:42:00,
2013-03-26 14:12:00,39.0,28.0,-100.00,WNW,293,13.0,20.0,64,0.00,,,0.21,843.000000,,2013-03-26 18:12:00,
2013-03-26 14:23:00,39.0,28.0,-100.00,WNW,293,13.0,20.0,64,0.00,,,0.21,843.000000,,2013-03-26 18:23:00,
2013-03-26 14:34:00,39.0,28.0,-100.00,WNW,293,13.0,20.0,64,0.00,,,0.21,843.000000,,2013-03-26 18:34:00,
2013-03-26 14:42:00,39.0,28.0,-100.00,WNW,293,13.0,20.0,64,0.00,,,0.21,843.000000,,2013-03-26 18:42:00,
2013-03-26 15:12:00,39.0,27.0,-100.00,WNW,303,8.0,22.0,63,0.00,,,0.17,548.000000,,2013-03-26 19:12:00,
2013-03-26 15:22:00,39.0,27.0,-100.00,WNW,303,8.0,22.0,63,0.00,,,0.17,548.000000,,2013-03-26 19:22:00,
2013-03-26 15:32:00,39.0,27.0,-100.00,WNW,303,8.0,22.0,63,0.00,,,0.17,548.000000,,2013-03-26 19:32:00,
2013-03-26 15:42:00,39.0,27.0,-100.00,WNW,303,8.0,22.0,63,0.00,,,0.17,548.000000,,2013-03-26 19:42:00,
2013-03-26 16:13:00,38.0,25.0,-100.00,WNW,293,10.0,20.0,59,0.00,,,0.14,226.000000,,2013-03-26 20:13:00,
2013-03-26 16:23:00,38.0,25.0,-100.00,WNW,293,10.0,20.0,59,0.00,,,0.14,226.000000,,2013-03-26 20:23:00,
2013-03-26 16:32:00,38.0,25.0,-100.00,WNW,293,10.0,20.0,59,0.00,,,0.14,226.000000,,2013-03-26 20:32:00,
2013-03-26 16:43:00,38.0,25.0,-100.00,WNW,293,10.0,20.0,59,0.00,,,0.14,226.000000,,2013-03-26 20:43:00,
2013-03-26 17:13:00,37.0,22.0,-100.00,West,277,11.0,20.0,55,0.00,,,0.12,248.000000,,2013-03-26 21:13:00,
2013-03-26 17:22:00,37.0,22.0,-100.00,West,277,11.0,20.0,55,0.00,,,0.12,248.000000,,2013-03-26 21:22:00,
2013-03-26 17:33:00,37.0,22.0,-100.00,West,277,11.0,20.0,55,0.00,,,0.12,248.000000,,2013-03-26 21:33:00,
2013-03-26 17:43:00,37.0,22.0,-100.00,West,277,11.0,20.0,55,0.00,,,0.12,248.000000,,2013-03-26 21:43:00,
2013-03-26 18:12:00,38.0,21.0,-100.00,WNW,287,9.0,16.0,50,0.00,,,0.10,188.000000,,2013-03-26 22:12:00,
2013-03-26 18:22:00,38.0,21.0,-100.00,WNW,287,9.0,16.0,50,0.00,,,0.10,188.000000,,2013-03-26 22:22:00,
2013-03-26 18:33:00,38.0,21.0,-100.00,WNW,287,9.0,16.0,50,0.00,,,0.10,188.000000,,2013-03-26 22:33:00,
2013-03-26 18:42:00,38.0,21.0,-100.00,WNW,287,9.0,16.0,50,0.00,,,0.10,188.000000,,2013-03-26 22:42:00,
2013-03-26 19:10:00,37.0,20.0,-100.00,WNW,290,8.0,18.0,50,0.00,,,0.10,82.000000,,2013-03-26 23:10:00,
2013-03-26 19:22:00,37.0,20.0,-100.00,WNW,290,8.0,18.0,50,0.00,,,0.10,82.000000,,2013-03-26 23:22:00,
2013-03-26 19:32:00,37.0,20.0,-100.00,WNW,290,8.0,18.0,50,0.00,,,0.10,82.000000,,2013-03-26 23:32:00,
2013-03-26 19:42:00,37.0,20.0,-100.00,WNW,290,8.0,18.0,50,0.00,,,0.10,82.000000,,2013-03-26 23:42:00,
2013-03-26 20:12:00,36.0,20.0,-100.00,West,280,8.0,15.0,52,0.00,,,0.10,33.000000,,2013-03-27 00:12:00,
2013-03-26 20:22:00,36.0,20.0,-100.00,West,280,8.0,15.0,52,0.00,,,0.10,33.000000,,2013-03-27 00:22:00,
2013-03-26 20:33:00,36.0,20.0,-100.00,West,280,8.0,15.0,52,0.00,,,0.10,33.000000,,2013-03-27 00:33:00,
2013-03-26 20:42:00,36.0,20.0,-100.00,West,280,8.0,15.0,52,0.00,,,0.10,33.000000,,2013-03-27 00:42:00,
2013-03-26 21:12:00,35.0,23.0,-100.00,WNW,288,9.0,15.0,61,0.00,,,0.10,2.000000,,2013-03-27 01:12:00,
2013-03-26 21:23:00,35.0,23.0,-100.00,WNW,288,9.0,15.0,61,0.00,,,0.10,2.000000,,2013-03-27 01:23:00,
2013-03-26 21:33:00,35.0,23.0,-100.00,WNW,288,9.0,15.0,61,0.00,,,0.10,2.000000,,2013-03-27 01:33:00,
2013-03-26 21:42:00,35.0,23.0,-100.00,WNW,288,9.0,15.0,61,0.00,,,0.10,2.000000,,2013-03-27 01:42:00,
2013-03-26 22:12:00,34.0,22.0,-100.00,West,281,6.0,14.0,62,0.00,,,0.10,0.000000,,2013-03-27 02:12:00,
2013-03-26 22:22:00,34.0,22.0,-100.00,West,281,6.0,14.0,62,0.00,,,0.10,0.000000,,2013-03-27 02:22:00,
2013-03-26 22:32:00,34.0,22.0,-100.00,West,281,6.0,14.0,62,0.00,,,0.10,0.000000,,2013-03-27 02:32:00,
2013-03-26 22:42:00,34.0,22.0,-100.00,West,281,6.0,14.0,62,0.00,,,0.10,0.000000,,2013-03-27 02:42:00,
2013-03-26 23:12:00,34.0,21.0,-100.00,West,279,5.0,10.0,59,0.00,,,0.10,0.000000,,2013-03-27 03:12:00,
2013-03-26 23:22:00,34.0,21.0,-100.00,West,279,5.0,10.0,59,0.00,,,0.10,0.000000,,2013-03-27 03:22:00,
2013-03-26 23:33:00,34.0,21.0,-100.00,West,279,5.0,10.0,59,0.00,,,0.10,0.000000,,2013-03-27 03:33:00,
2013-03-26 23:42:00,34.0,21.0,-100.00,West,279,5.0,10.0,59,0.00,,,0.10,0.000000,,2013-03-27 03:42:00,